Terminal Aerodrome Forecast
Issued by NWS

Home | Current Version | Previous Version | Graphics & Text | Print | Product List | Glossary Off
Versions: 1 2 3 4 5 6 7 8 9 10 11 12 13 14 15 16 17 18 19 20 21 22 23 24 25 26 27 28

344
FTUS43 KDDC 101550 AAA
TAFGCK
TAF AMD
KGCK 101550Z 1016/1112 18010KT P6SM SCT015 BKN200
     FM101800 18015G25KT P6SM BKN200
     FM110200 15010KT P6SM BKN060=

USA.gov is the U.S. government's official web portal to all federal, state and local government web resources and services.